Flag for Brazil Weather past 2 weeks in Florianópolis, Santa Catarina, Brazil

Now
59 °F

Partly sunny.


Feels Like: 58 °F
Forecast: 52 / 65 °F
Wind: 6 mph from Southwest

Location: Florianopolis Aeroporto

Current Time: Jul 28, 2014 at 8:48:50 AM

Latest Report: Jul 28, 2014 at 8:00 AM


Visibility: N/A

Pressure: 30.45 "Hg

Humidity: 72%

Dew point: 50 °F

Location of FlorianópolisLocation

Historic Weather in Florianópolis — Graph

°F

Florianópolis temperature yesterday

Maximum temperature yesterday: 64 °F (at 1:00 PM)
Minimum temperature yesterday: 55 °F (at 6:00 AM)
Average temperature yesterday: 59 °F

Past Weeks' High & Low Weather Summary

 TemperatureHumidityPressure
High73 °F (Jul 16, 3:00 PM)94% (Jul 13, 7:00 AM)30.42 "Hg (Jul 13, 7:00 AM)
Low50 °F (Jul 19, 5:00 AM)35% (Jul 19, 2:00 PM)29.77 "Hg (Jul 24, 4:00 AM)
Average63 °F75%30.16 "Hg
* Reported Jul 13 7:00 AM — Jul 28 7:00 AM, Florianópolis, Weather by CustomWeather, © 2014

Note: Actual official high and low records may vary slightly from our data, if they occured in-between our weather recording intervals... More about our weather records

Advertising

Florianópolis weather history for previous 24 hours

 ConditionsComfort  
Time TempWeatherWind HumidityBarometerVisibility
7:00 AM
Jul 28
57 °FPartly sunny.No wind77%30.42 "HgN/A
6:00 AM55 °FPartly sunny.2 mph94%30.42 "HgN/A
5:00 AM55 °FPassing clouds.No wind94%30.39 "HgN/A
4:00 AM55 °FPassing clouds.No wind88%30.39 "HgN/A
3:00 AM55 °FPassing clouds.5 mph88%30.39 "HgN/A
2:00 AM55 °FPassing clouds.3 mph94%30.42 "HgN/A
1:00 AM54 °FPassing clouds.No wind88%30.42 "HgN/A
12:00 AM54 °FPassing clouds.No wind88%30.42 "HgN/A
11:00 PM
Jul 27
57 °FPassing clouds.No wind77%30.42 "HgN/A
10:00 PM59 °FPassing clouds.2 mph72%30.42 "HgN/A
9:00 PM59 °FPassing clouds.7 mph72%30.42 "HgN/A
8:00 PM59 °FPassing clouds.3 mph72%30.42 "HgN/A
7:00 PM59 °FPassing clouds.6 mph68%30.39 "HgN/A
6:00 PM61 °FPassing clouds.3 mph68%30.39 "HgN/A
5:00 PM61 °FPassing clouds.8 mph68%30.36 "HgN/A
4:00 PM61 °FScattered clouds.7 mph63%30.36 "HgN/A
3:00 PM64 °FScattered clouds.10 mph60%30.33 "HgN/A
2:00 PM64 °FPassing clouds.13 mph56%30.33 "HgN/A
1:00 PM64 °FPassing clouds.7 mph56%30.33 "HgN/A
12:00 PM63 °FPassing clouds.8 mph59%30.36 "HgN/A
11:00 AM63 °FScattered clouds.10 mph56%30.39 "HgN/A
10:00 AM61 °FPartly sunny.10 mph63%30.39 "HgN/A
9:00 AM59 °FPartly sunny.9 mph68%30.36 "HgN/A
8:00 AM57 °FScattered clouds.7 mph72%30.33 "HgN/A
Weather by CustomWeather, © 2014

See weather overviewHow to use our weather pages